Погода в Гомеле

Погода в Гомеле : погода сейчас, прогноз погоды и архив. Всё, что Вы хотите узнать о погоде в Гомеле!

Хотите узнать прогноз погоды в Гомеле? Тогда Вам сюда: Погода в Гомеле

Поиск расширенной информации на нашем сайте:

Другие новости

Новости СМИ2

Главная страница сайта

Новости сайта

03.07.2017

Напоминаем, что на нашем специализированном сайте Метеоцентр.Азия вы можете получить высокодетализированные автоматические прогнозы погоды по пунктам России, СНГ и мира в авиационном формате (включающие направление и скорость ветра, видимость, явления погоды, количество и форму облачности, нижнюю и верхнюю границу облачности).

Рекомендуем: Мобильные аудио поздравления на телефон с днем рождения http://www.prorebenka.com.

Погода в Гомеле - сегодня

Время (UTC), дата Ветер
(°,м/с) 
Видим.   Явления Облачность Т
(°С)
Тd
(°С)
f(%) Тe
(°С)
Pmin
(гПа)
dP
(гПа)
Po
(мм)
O2
(г/м3)
Тmin Tmax R s Состояние
почвы
15 18.10.17 220 (ЮЗ) 29000 м    5/0 верхняя 
[Cs]
+18.2 +10.8 62 +22  1013  -0.7  749  281           
18 18.10.17 240 (ЮЗ) 22000 м    8/0 верхняя 
[Cs]
+15.2 +10.1 72 +18  1013.3  0.2  749  284    +21.1       
21 18.10.17 310 (СЗ) 17000 м    6/0 верхняя 
[Cs]
+13.8 +10.9 83 +16  1014.2  0.8  749  285           
00 19.10.17 тихо ()   10 км    3/0 верхняя 
[Ci fib]
+9.6 +8.4 92 +10  1015.5  750  291           
03 19.10.17 тихо ()   10 км    3/0 верхняя 
[Ci fib]
+9.2 +7.8 91 +9  1016  0.5  751  291           
06 19.10.17 310 (СЗ) 9000 м  дымка  8/0 средняя, верхняя 
[Sc diur, vesp|Ac trans|Ci]
+9.1 +7.8 92 +10  1017.2  1.1  751  292  +7.4         
09 19.10.17 030 (СВ) 26000 м    9/0 средняя, верхняя 
[Ac trans|Ci]
+13.5 +8.2 70 +15  1017.9  752  287           
12 19.10.17 340 (С) 29000 м    9/4 1000 м средняя, верхняя 
[Sc|Ac trans|Ci]
+14.2 +8.5 69 +15  1017.6  -0.3  752  287           
15 19.10.17 010 (С) 21000 м    9/3 1000 м средняя, верхняя 
[Sc|Ac trans|Ci]
+12.1 +8.7 80 +13  1018  0.3  752  289           
18 19.10.17 030 (СВ) 30000 м    8/3 1000 м средняя 
[Sc|Ac trans]
+10.3 +5.5 72 +11  1019.1  753  291    +14.6       
21 19.10.17 030 (СВ) 20000 м    3/0 средняя 
[Ac trans]
+6.7 +3.4 79 +8  1020.9  1.5  754  296           
00 20.10.17 030 (СВ) 20000 м    3/0 средняя 
[Ac trans]
+5.3 +2.4 82 +6  1021.2  0.3  754  298           
03 20.10.17 040 (СВ) 17000 м    3/0 средняя 
[Ac trans]
+3.2 +1.3 87 +4  1021.8  0.4  755  300           
06 20.10.17 010 (С) 19000 м    3/0 средняя 
[Ac trans]
+3.7 +1.3 84 +5  1023  1.2  755  300  +2.3         
09 20.10.17 120 (ЮВ) 30000 м    ясно 
+9.3 +1.9 60 +9  1023.3  0.7  756  294           
12 20.10.17 040 (СВ) 35000 м    1/0 верхняя 
[Ci fib]
+10.6 +1 51 +12  1022.4  -0.9  755  293           
15 20.10.17 050 (СВ) 25000 м    3/0 верхняя 
[Ci fib]
+8.3 -0.2 55 +9  1022.4  -0.1  755  295           
18 20.10.17 тихо ()   25000 м    ясно 
+4.7 +0.6 75 +5  1023  0.4  755  299    +11.2       
21 20.10.17 тихо ()   20000 м    6/0 средняя 
[Ac trans]
+3.2 +0.8 84 +3  1022.7  -0.4  755  301           
00 21.10.17 тихо ()   20000 м    9/0 средняя 
[Ac und]
+2.9 +0.8 86 +3  1022.5  -0.2  755  301           
03 21.10.17 тихо ()   20000 м    10/0 средняя 
[Ac As]
+3.4 +0.6 82 +3  1021.5  -1  754  300           
06 21.10.17 120 (ЮВ) 30000 м    10/0 средняя 
[Ac As]
+4.1 +1 80 +5  1020.8  -0.6  754  299  +2.3         
09 21.10.17 100 (В) 18000 м    10/0 средняя 
[Ac As]
+6.4 +2.1 74 +7  1020.2  -0.5  753  296           
12 21.10.17 080 (В) 30000 м    10/4 1000 м средняя 
[Sc|Ac As]
+7.6 +1.6 66 +9  1018.6  -1.5  752  295           
15 21.10.17 090 (В) 8000 м  слаб. ливневой дождь  10/10 750 м 
[Sc]
+4 +2.8 92 +5  1018.2  -0.6  752  298         
Время (UTC), дата Ветер
(°,м/с) 
Видим.   Явления Облачность Т
(°С)
Тd
(°С)
f(%) Тe
(°С)
Pmin
(гПа)
dP
(гПа)
Po
(мм)
O2
(г/м3)
Тmin Tmax R s Состояние
почвы

Для получения пояснительной информации подведите курсор к названию столбца.

ПОГОДА в Гомеле - архив

Всё, что Вы хотите узнать о погоде в Гомеле - удобно и подробно!

Выберите нужную дату (начиная с 1 января 2015* года) и нажмите кнопку "Найти".
Будут отображены архивные сводки погоды по пункту Гомель, начиная с указанной даты.


Отображать данные в формате CSV (для использования в таблицах Excel)


Внимание! Наш архив погоды предназначен исключительно для личного некоммерческого использования в познавательных целях. Если Вам необходимы официальные справки о состоянии погоды (для производственных, юридических, коммерческих и т.п. целей), обращайтесь в органы Росгидромета.

*Примечание: данная дата относится к архиву по метеостанциям СССР (Россия, СНГ, Балтия).
Архив по метеостанциям Зарубежной Европы и Азии (кроме Китая) хранится 10 дней, по другим регионам земного шара (Китай, Африка, Америка, Австралия, Океания) - 1 день.

Гомель - район местоположения метеостанции


Название, широта, долгота, высота метеостанции:
Гомель (город) 52.4°ш. 30.9°д. 126 м над ур. моря [Беларусь]

Дополнительная информация

В oтличие oт бoльшинства пoгoдных сайтoв мы публикуем пoдрoбную метеoинфoрмацию в детальнoм прoфессиoнальнoм фoрмате.

Характеристики температуры и влажнoсти вoздуха измеряются на высoте 2 м в тени вдали oт зданий и деревьев.
Скoрoсть ветра измеряется на высoте 10 м (на урoвне рoста челoвека скoрoсть ветра ниже в 1.5-2 раза). Если метеoстанция нахoдится в гoрoде или в лесу, тo скoрoсть ветра занижена на 2-4 м/с пo сравнению с oткрытым местoм. Скoрoсть ветра над акватoриями крупных рек и oзёр, а также на вершинах хoлмoв на 2-5 м/с выше, чем в oбычных услoвиях.
Атмoсфернoе давление в разных тoчках местнoсти мoжет значительнo oтличаться oт давления на метеoстанции, в зависимoсти oт услoвий рельефа (при пoдъёме на 10 м давление пoнижается примернo на 1 мм рт.ст.).